Erie, CO

4:11 PM MST on November 20, 2017 (GMT -0700)
Erie Municipal Airport

Weather History for KEIK - April, 2013

Change the Weather History Date:

Tuesday, April 30, 2013

  Actual Average (KBJC) Record (KBJC)
Temperature  
Mean Temperature 52 °F -  
Max Temperature 66 °F 62 °F 90 °F (1992)
Min Temperature 37 °F 40 °F -9 °F (1987)
Degree Days  
Heating Degree Days 14    
Growing Degree Days 2 (Base 50)    
Moisture  
Dew Point 33 °F    
Average Humidity 54    
Maximum Humidity 97    
Minimum Humidity 16    
Precipitation  
Precipitation 0.00 in - - ()
Sea Level Pressure  
Sea Level Pressure 29.81 in    
Wind  
Wind Speed 7 mph (East)    
Max Wind Speed 22 mph    
Max Gust Speed 36 mph    
Visibility 10 miles    
Events Rain    
Averages and records for this station are not official NWS values.
T = Trace of Precipitation, MM = Missing Value Source: NWS Daily Summary

Daily Weather History Graph

Daily Weather History Graph

Search for Another Location

Airport or City:

Trip Planner

Search our weather history database for the weather conditions in past years. The results will help you decide how hot, cold, wet, or windy it might be!

Date:

Astronomy

Apr. 30, 2013 Rise Set
Actual Time 6:01 AM MDT 7:54 PM MDT
Civil Twilight 5:31 AM MDT 8:23 PM MDT
Nautical Twilight 4:56 AM MDT 8:59 PM MDT
Astronomical Twilight 4:18 AM MDT 9:37 PM MDT
Moon 12:19 AM MDT (4/30) 10:32 AM MDT (4/30)
Length of Visible Light 14h 51m
Length of Day
13h 53m
Waning Gibbous, 69% of the Moon is Illuminated
Apr 30
Waning Gibbous
May 2
Last Quarter
May 9
New
May 17
First Quarter
May 24
Full

Hourly Weather History & Observations

Time (MDT) Temp. Windchill Dew Point Humidity Pressure Visibility Wind Dir Wind Speed Gust Speed Precip Events Conditions
12:16 AM 62.2 °F - 25.3 °F 25% 29.64 in 10.0 mi SW 8.1 mph - N/A   Clear
12:36 AM 65.5 °F - 21.2 °F 18% 29.65 in 10.0 mi SW 9.2 mph - N/A   Clear
12:56 AM 66.9 °F - 19.4 °F 16% 29.64 in 10.0 mi South 9.2 mph - N/A   Clear
1:16 AM 64.9 °F - 21.4 °F 19% 29.65 in 10.0 mi SSW 8.1 mph - N/A   Clear
1:36 AM 64.9 °F - 21.6 °F 19% 29.64 in 10.0 mi SSW 4.6 mph - N/A   Clear
1:56 AM 59.5 °F - 25.7 °F 27% 29.64 in 10.0 mi WNW 4.6 mph - N/A   Clear
2:16 AM 61.3 °F - 25.2 °F 25% 29.64 in 10.0 mi Calm Calm - N/A   Clear
2:36 AM 59.0 °F - 26.1 °F 28% 29.64 in 10.0 mi Calm Calm - N/A   Clear
2:56 AM 61.2 °F - 24.3 °F 24% 29.64 in 10.0 mi ESE 4.6 mph - N/A   Clear
3:16 AM 61.2 °F - 25.2 °F 25% 29.64 in 10.0 mi East 5.8 mph - N/A   Clear
3:36 AM 59.5 °F - 25.7 °F 27% 29.64 in 10.0 mi East 9.2 mph - N/A   Clear
3:56 AM 57.4 °F - 26.6 °F 31% 29.64 in 10.0 mi ESE 6.9 mph - N/A   Clear
4:16 AM 56.8 °F - 25.7 °F 30% 29.65 in 10.0 mi SE 3.5 mph - N/A   Clear
4:36 AM 54.9 °F - 26.2 °F 33% 29.66 in 10.0 mi SE 3.5 mph - N/A   Clear
4:56 AM 56.5 °F - 24.8 °F 30% 29.67 in 10.0 mi East 3.5 mph - N/A   Clear
5:16 AM 56.5 °F - 26.2 °F 31% 29.71 in 10.0 mi ENE 21.9 mph 32.2 mph N/A   Clear
5:36 AM 44.6 °F 38.4 °F 34.7 °F 68% 29.73 in 10.0 mi ENE 12.7 mph 23.0 mph N/A   Clear
5:56 AM 42.8 °F 37.0 °F 34.7 °F 73% 29.76 in 10.0 mi ENE 10.4 mph 19.6 mph N/A   Clear
6:16 AM 41.9 °F 38.2 °F 34.7 °F 76% 29.80 in 10.0 mi NE 5.8 mph - N/A   Clear
6:36 AM 41.9 °F 39.0 °F 34.9 °F 76% 29.83 in 10.0 mi NE 4.6 mph - N/A   Scattered Clouds
6:56 AM 42.3 °F - 34.9 °F 75% 29.84 in 10.0 mi Calm Calm - N/A   Scattered Clouds
7:16 AM 42.4 °F 39.6 °F 34.2 °F 72% 29.85 in 10.0 mi ENE 4.6 mph - N/A   Scattered Clouds
7:36 AM 43.0 °F - 33.8 °F 70% 29.85 in 10.0 mi Calm Calm - N/A   Scattered Clouds
7:56 AM 44.2 °F - 33.1 °F 65% 29.85 in 10.0 mi Calm Calm - N/A   Clear
8:16 AM 44.4 °F 42.0 °F 33.3 °F 65% 29.84 in 10.0 mi South 4.6 mph - N/A   Clear
8:36 AM 46.0 °F 43.1 °F 32.9 °F 60% 29.84 in 10.0 mi SE 5.8 mph - N/A   Clear
8:56 AM 47.5 °F - 33.1 °F 57% 29.85 in 10.0 mi ESE 3.5 mph - N/A   Clear
9:16 AM 49.5 °F - 34.2 °F 56% 29.85 in 10.0 mi SSE 6.9 mph - N/A   Clear
9:36 AM 50.0 °F - 34.0 °F 54% 29.84 in 10.0 mi ESE 4.6 mph - N/A   Clear
9:56 AM 50.9 °F - 34.7 °F 54% 29.83 in 10.0 mi East 9.2 mph - N/A   Clear
10:16 AM 51.3 °F - 34.9 °F 54% 29.83 in 10.0 mi ESE 8.1 mph - N/A   Clear
10:36 AM 51.3 °F - 35.1 °F 54% 29.83 in 10.0 mi ESE 10.4 mph - N/A   Clear
10:56 AM 50.4 °F - 35.6 °F 57% 29.84 in 10.0 mi East 8.1 mph - N/A   Scattered Clouds
11:16 AM 50.7 °F - 35.8 °F 57% 29.83 in 10.0 mi ENE 8.1 mph - N/A   Clear
11:36 AM 50.9 °F - 36.0 °F 57% 29.83 in 10.0 mi East 6.9 mph - N/A   Scattered Clouds
11:56 AM 51.3 °F - 36.0 °F 56% 29.82 in 10.0 mi ENE 8.1 mph - N/A   Scattered Clouds
12:16 PM 52.7 °F - 36.7 °F 55% 29.82 in 10.0 mi ESE 5.8 mph - N/A   Clear
12:36 PM 53.6 °F - 36.5 °F 52% 29.82 in 10.0 mi East 6.9 mph - N/A   Scattered Clouds
12:56 PM 52.5 °F - 36.3 °F 54% 29.82 in 10.0 mi Calm Calm - N/A   Scattered Clouds
1:16 PM 53.8 °F - 36.3 °F 52% 29.82 in 10.0 mi ENE 4.6 mph - N/A   Scattered Clouds
1:36 PM 54.7 °F - 36.9 °F 51% 29.81 in 10.0 mi East 5.8 mph - N/A   Scattered Clouds
1:56 PM 54.0 °F - 37.4 °F 54% 29.82 in 10.0 mi ENE 3.5 mph - N/A   Clear
2:16 PM 54.1 °F - 37.4 °F 53% 29.81 in 10.0 mi East 9.2 mph - N/A   Scattered Clouds
2:36 PM 54.1 °F - 37.6 °F 54% 29.83 in 10.0 mi NE 5.8 mph - N/A   Mostly Cloudy
2:56 PM 53.6 °F - 38.1 °F 56% 29.83 in 10.0 mi NE 9.2 mph - N/A   Overcast
3:16 PM 55.9 °F - 37.9 °F 51% 29.82 in 10.0 mi East 8.1 mph - N/A   Mostly Cloudy
3:36 PM 54.1 °F - 37.6 °F 54% 29.82 in 10.0 mi NE 3.5 mph - N/A   Mostly Cloudy
3:53 PM 55.0 °F - 39.0 °F 55% 29.81 in 10.0 mi ESE 6.9 mph - N/A   Mostly Cloudy
4:56 PM 54.3 °F - 36.3 °F 51% 29.82 in 10.0 mi ESE 11.5 mph 17.3 mph N/A   Unknown
5:16 PM 54.1 °F - 35.8 °F 50% 29.82 in 10.0 mi ESE 12.7 mph - N/A   Mostly Cloudy
5:36 PM 54.9 °F - 35.8 °F 49% 29.80 in 10.0 mi ESE 12.7 mph - N/A   Scattered Clouds
5:56 PM 54.5 °F - 35.2 °F 48% 29.82 in 10.0 mi East 10.4 mph - N/A   Clear
6:16 PM 55.0 °F - 35.4 °F 48% 29.82 in 10.0 mi ESE 10.4 mph - N/A   Clear
6:36 PM 53.2 °F - 35.4 °F 51% 29.83 in 10.0 mi ENE 6.9 mph - N/A   Clear
6:56 PM 52.9 °F - 35.2 °F 51% 29.86 in 10.0 mi ENE 8.1 mph - N/A   Mostly Cloudy
7:16 PM 52.9 °F - 35.6 °F 52% 29.86 in 10.0 mi NE 6.9 mph - N/A   Overcast
7:36 PM 52.3 °F - 35.6 °F 53% 29.86 in 10.0 mi NNE 5.8 mph - N/A   Overcast
8:16 PM 52.2 °F - 33.8 °F 50% 29.89 in 10.0 mi NE 11.5 mph - N/A   Overcast
8:36 PM 51.8 °F - 33.6 °F 50% 29.91 in 10.0 mi NNE 11.5 mph - N/A   Overcast
8:56 PM 44.2 °F 36.2 °F 37.9 °F 79% 29.97 in 10.0 mi NNE 19.6 mph 35.7 mph N/A Rain Light Rain
9:16 PM 40.3 °F 30.7 °F 38.5 °F 93% 29.98 in 5.0 mi North 20.7 mph 34.5 mph N/A Rain Rain
9:36 PM 39.9 °F 30.8 °F 38.7 °F 95% 29.98 in 10.0 mi NNE 18.4 mph 24.2 mph N/A Rain Light Rain
9:56 PM 39.2 °F 29.6 °F 37.8 °F 95% 30.00 in 10.0 mi North 19.6 mph 26.5 mph N/A Rain Light Rain
10:16 PM 39.4 °F 30.4 °F 38.3 °F 96% 30.01 in 10.0 mi North 17.3 mph 20.7 mph N/A Rain Rain
10:36 PM 39.0 °F 32.3 °F 37.8 °F 95% 30.02 in 10.0 mi North 10.4 mph 19.6 mph N/A Rain Light Rain
11:16 PM 37.8 °F 34.2 °F 36.9 °F 97% 30.03 in 10.0 mi NW 4.6 mph - N/A Rain Rain
11:36 PM 37.8 °F 34.2 °F 36.9 °F 97% 30.04 in 10.0 mi WNW 4.6 mph - N/A Rain Rain
11:56 PM 37.2 °F 33.6 °F 36.3 °F 97% 30.04 in 10.0 mi WNW 4.6 mph - N/A Rain Light Rain